Holland Rock Automatic We, British Columbia

12:21 PM PST on December 14, 2017 (GMT -0800)
Holland Rock Automatic We

Weather History for CWHL - December, 2013

Change the Weather History Date:

Monday, December 30, 2013

  Actual Average (CYPR) Record (CYPR)
Temperature  
Mean Temperature 45 °F -  
Max Temperature 47 °F 38 °F 50 °F (1997)
Min Temperature 43 °F 29 °F 10 °F (1996)
Degree Days  
Heating Degree Days 20    
Moisture  
Dew Point 42 °F    
Average Humidity 89    
Maximum Humidity 95    
Minimum Humidity 80    
Precipitation  
Precipitation 0.00 in - - ()
Sea Level Pressure  
Sea Level Pressure 29.87 in    
Wind  
Wind Speed 17 mph ()    
Max Wind Speed 31 mph    
Max Gust Speed 37 mph    
Averages and records for this station are not official NWS values.
T = Trace of Precipitation, MM = Missing Value Source: Averaged Metar Reports

Daily Weather History Graph

Daily Weather History Graph

Search for Another Location

Airport or City:

Trip Planner

Search our weather history database for the weather conditions in past years. The results will help you decide how hot, cold, wet, or windy it might be!

Date:

Astronomy

Dec. 30, 2013 Rise Set
Actual Time 9:01 AM PST 4:27 PM PST
Civil Twilight 8:17 AM PST 5:10 PM PST
Nautical Twilight 7:31 AM PST 5:57 PM PST
Astronomical Twilight 6:48 AM PST 6:40 PM PST
Moon 6:50 AM PST (12/30) 3:14 PM PST (12/30)
Length of Visible Light 8h 53m
Length of Day
7h 25m
Waning Crescent, 4% of the Moon is Illuminated
Dec 30
Waning Crescent
Jan 1
New
Jan 7
First Quarter
Jan 15
Full
Jan 23
Last Quarter

Hourly Weather History & Observations

Time (PST) Temp. Windchill Dew Point Humidity Pressure Visibility Wind Dir Wind Speed Gust Speed Precip Events Conditions
12:00 AM 47.7 °F - 42.6 °F 83% 29.94 in - SE 13.8 mph - N/A   Unknown
1:00 AM 46.6 °F - 42.6 °F 86% 29.91 in - SSE 29.9 mph 35.7 mph N/A   Unknown
2:00 AM 46.8 °F - 43.3 °F 88% 29.91 in - SSE 31.1 mph 36.8 mph N/A   Unknown
3:00 AM 45.3 °F 36.3 °F 43.2 °F 92% 29.89 in - SE 26.5 mph - N/A   Unknown
4:00 AM 45 °F - 43 °F 88% 29.88 in - SE 20.7 mph - -  
4:00 AM 45.3 °F 37.3 °F 42.6 °F 90% 29.88 in - SE 20.7 mph - N/A   Unknown
5:00 AM 45.7 °F 36.7 °F 43.5 °F 92% 29.84 in - SE 26.5 mph - N/A   Unknown
6:00 AM 46.0 °F 37.6 °F 43.5 °F 91% 29.81 in - SE 24.2 mph - N/A   Unknown
7:00 AM 46.4 °F 37.5 °F 42.1 °F 85% 29.77 in - SE 27.6 mph - N/A   Unknown
8:00 AM 46.4 °F 37.5 °F 41.5 °F 83% 29.75 in - SE 27.6 mph - N/A   Unknown
9:00 AM 46.0 °F 37.2 °F 41.5 °F 84% 29.73 in - SE 26.5 mph - N/A   Unknown
10:00 AM 46 °F - 42 °F 80% 29.73 in - SE 23.0 mph - -  
10:00 AM 46.4 °F 38.3 °F 41.7 °F 84% 29.73 in - SE 23.0 mph 28.8 mph N/A   Unknown
11:00 AM 45.1 °F 36.9 °F 42.1 °F 89% 29.75 in - SE 21.9 mph - N/A   Unknown
12:00 PM 43.9 °F 34.7 °F 42.3 °F 94% 29.76 in - SSE 24.2 mph - N/A   Unknown
1:00 PM 45.3 °F 38.7 °F 41.9 °F 88% 29.80 in - West 15.0 mph - N/A   Unknown
2:00 PM 45.3 °F 41.1 °F 41.9 °F 88% 29.82 in - West 8.1 mph - N/A   Unknown
3:00 PM 45.3 °F 41.1 °F 41.9 °F 88% 29.86 in - SW 8.1 mph - N/A   Unknown
4:00 PM 44 °F - 42 °F 92% 29.88 in - ESE 4.6 mph - -  
4:00 PM 43.9 °F 41.3 °F 42.4 °F 95% 29.88 in - ESE 4.6 mph - N/A   Unknown
5:00 PM 44.6 °F 39.2 °F 42.4 °F 92% 29.89 in - SE 10.4 mph - N/A   Unknown
6:00 PM 45.7 °F 39.8 °F 42.4 °F 88% 29.91 in - WSW 12.7 mph - N/A   Unknown
7:00 PM 44.4 °F 37.5 °F 41.4 °F 89% 29.94 in - WSW 15.0 mph - N/A   Unknown
8:00 PM 45.0 °F 39.7 °F 42.4 °F 91% 29.97 in - SW 10.4 mph - N/A   Unknown
9:00 PM 44.1 °F 37.7 °F 41.5 °F 91% 29.99 in - WSW 12.7 mph - N/A   Unknown
10:00 PM 45 °F - 42 °F 87% 30.00 in - SSW 6.9 mph - -  
10:00 PM 44.6 °F 40.7 °F 42.4 °F 92% 30.00 in - SSW 6.9 mph - N/A   Unknown
11:00 PM 44.4 °F 40.0 °F 41.7 °F 90% 30.02 in - SSW 8.1 mph - N/A   Unknown